Starlink 1894

operational
NORAD ID: 46744 Int'l Des: 2020-074 Owner: SPXS Country: US Constellation: starlink
LEOCIRCULARSTARLINK_TYPE

About Starlink 1894

Description loading...

Live Position

Loading 3D Globe...

Upcoming Passes

Altitude History

Altitude vs Time

uPlot chart will show altitude changes over time

Two-Line Element Set

1 46744U 20074F 25348.96359763 .00025272 00000-0 51213-3 0 9991
2 46744 53.0533 330.7941 0010807 50.2436 309.9520 15.46212148284061
Epoch: Dec 14, 2025 • Age: 22 hours

Current Status

Altitude 424.3 km
Velocity 7.67 km/s
Sub-Earth Point 41.63°N, 32.95°W
Launch Date Oct 24, 2020
Age 5.1 years
Type internet

Technical Details

Classification Payload
Mass 260.00 kg
Dry Mass 248.00 kg
Total Mass 260.00 kg
Length 0.20 m
Diameter 2.80 m
Span 9.00 m
Shape Box + pan
Manufacturer SPXS
Bus Type Starlink
Phase Status In Orbit
Owner/State SPXS/US

Large Constellations

Loading constellations...